Weather History for Mae Hong Son, Thailand

Change the Weather History Date:

Monday, March 3, 2014

  Actual Average Record
Temperature  
Mean Temperature 78 °F -  
Max Temperature 96 °F 97 °F - ()
Min Temperature 61 °F 64 °F - ()
Cooling Degree Days 14    
Growing Degree Days 28 (Base 50)    
Moisture  
Dew Point 58 °F    
Average Humidity 50    
Maximum Humidity 89    
Minimum Humidity 19    
Precipitation  
Precipitation 0.00 in 0.01 in - ()
Sea Level Pressure  
Sea Level Pressure 29.88 in    
Wind  
Wind Speed 1 mph ()    
Max Wind Speed 5 mph    
Max Gust Speed -    
Visibility 5.1 miles    
Events      
T = Trace of Precipitation, MM = Missing Value Source: Averaged Metar Reports

Daily Weather History Graph

Daily Weather History Graph

Search for Another Location

Airport:

Trip Planner

Search our weather history database for the weather conditions in past years. The results will help you decide how hot, cold, wet, or windy it might be!

Date:

Astronomy

Mar. 03, 2014 Rise Set
Actual Time 6:46 AM ICT 6:34 PM ICT
Civil Twilight 6:24 AM ICT 6:56 PM ICT
Nautical Twilight 5:58 AM ICT 7:21 PM ICT
Astronomical Twilight 5:33 AM ICT 7:47 PM ICT
Moon 7:56 AM ICT (3/3) 8:36 PM ICT (3/3)
Length of Visible Light 12h 31m
Length of Day
11h 47m
Waxing Crescent, 5% of the Moon is Illuminated
Mar 3
Waxing Crescent
Mar 8
First Quarter
Mar 17
Full
Mar 24
Last Quarter
Mar 31
New

Hourly Weather History & Observations

Time (ICT) Temp. Heat Index Dew Point Humidity Pressure Visibility Wind Dir Wind Speed Gust Speed Precip Events Conditions
1:00 AM 68 °F - 62 °F 74% 29.88 in 5 mi Calm Calm - -   Mist
4:00 AM 63 °F - 60 °F 88% 29.87 in 4 mi Calm Calm - -   Mist
7:00 AM 62 °F - 60 °F 89% 29.92 in 5 mi Calm Calm - -   Mist
7:00 AM 62.6 °F - 57.2 °F 82% 29.92 in 3.7 mi Calm Calm - N/A   Unknown
8:00 AM 64.4 °F - 59.0 °F 83% 29.95 in 3.7 mi Calm Calm - N/A   Unknown
9:00 AM 69.8 °F - 59.0 °F 68% 29.95 in 3.7 mi Calm Calm - N/A   Unknown
10:00 AM 74 °F - 63 °F 60% 29.96 in 6 mi Calm Calm - -  
10:00 AM 73.4 °F - 60.8 °F 65% 29.98 in - Variable 2.3 mph - N/A   Clear
11:00 AM 80.6 °F 81.1 °F 59.0 °F 48% 29.95 in - Variable 2.3 mph - N/A   Clear
12:00 PM 86.0 °F 85.4 °F 59.0 °F 40% 29.95 in - Variable 2.3 mph - N/A   Clear
1:00 PM 89 °F - 65 °F 35% 29.89 in 6 mi Calm Calm - -  
1:00 PM 91.4 °F 89.4 °F 55.4 °F 29% 29.89 in - SSW 3.5 mph - N/A   Clear
2:00 PM 93.2 °F 91.9 °F 57.2 °F 30% 29.86 in - Variable 4.6 mph - N/A   Clear
3:00 PM 93.2 °F 90.8 °F 53.6 °F 26% 29.83 in - Variable 4.6 mph - N/A   Clear
4:00 PM 95 °F - 61 °F 22% 29.75 in 7 mi Calm Calm - -  
4:00 PM 95.0 °F - 48.2 °F 20% 29.80 in - Variable 4.6 mph - N/A   Clear
5:00 PM 95.0 °F - 46.4 °F 19% 29.77 in - Variable 2.3 mph - N/A   Clear
6:00 PM 91.4 °F - 51.8 °F 26% 29.80 in - Calm Calm - N/A   Clear
7:00 PM 85 °F - 60 °F 33% 29.78 in 7 mi Calm Calm - -  
10:00 PM 73 °F - 62 °F 59% 29.91 in 6 mi Calm Calm - -  
11:00 PM 69.8 °F - 55.4 °F 60% 29.95 in 3.7 mi Calm Calm - N/A   Unknown